Year,Month,Day,Hour,Minute,Value (Times are PST for temperature in C)
2013,12,06,00,00,-3.80
2013,12,06,00,01,-3.80
2013,12,06,00,02,-3.80
2013,12,06,00,03,-3.80
2013,12,06,00,04,-3.80
2013,12,06,00,05,-3.80
2013,12,06,00,06,-3.80
2013,12,06,00,07,-3.80
2013,12,06,00,08,-3.90
2013,12,06,00,09,-3.90
2013,12,06,00,10,-3.90
2013,12,06,00,11,-3.90
2013,12,06,00,12,-3.90
2013,12,06,00,13,-3.90
2013,12,06,00,14,-3.90
2013,12,06,00,15,-3.90
2013,12,06,00,16,-3.90
2013,12,06,00,17,-3.90
2013,12,06,00,18,-3.90
2013,12,06,00,19,-3.90
2013,12,06,00,20,-3.90
2013,12,06,00,21,-3.90
2013,12,06,00,22,-3.90
2013,12,06,00,23,-3.80
2013,12,06,00,24,-3.80
2013,12,06,00,25,-3.80
2013,12,06,00,26,-3.80
2013,12,06,00,27,-3.80
2013,12,06,00,28,-3.80
2013,12,06,00,29,-3.80
2013,12,06,00,30,-3.70
2013,12,06,00,31,-3.70
2013,12,06,00,32,-3.70
2013,12,06,00,33,-3.70
2013,12,06,00,34,-3.70
2013,12,06,00,35,-3.70
2013,12,06,00,36,-3.70
2013,12,06,00,37,-3.70
2013,12,06,00,38,-3.70
2013,12,06,00,39,-3.70
2013,12,06,00,40,-3.70
2013,12,06,00,41,-3.70
2013,12,06,00,42,-3.80
2013,12,06,00,43,-3.80
2013,12,06,00,44,-3.80
2013,12,06,00,45,-3.80
2013,12,06,00,46,-3.80
2013,12,06,00,47,-3.70
2013,12,06,00,48,-3.70
2013,12,06,00,49,-3.70
2013,12,06,00,50,-3.70
2013,12,06,00,51,-3.70
2013,12,06,00,52,-3.70
2013,12,06,00,53,-3.70
2013,12,06,00,54,-3.70
2013,12,06,00,55,-3.80
2013,12,06,00,56,-3.80
2013,12,06,00,57,-3.80
2013,12,06,00,58,-3.80
2013,12,06,00,59,-3.80
2013,12,06,01,00,-3.80
2013,12,06,01,01,-3.90
2013,12,06,01,02,-3.90
2013,12,06,01,03,-3.90
2013,12,06,01,04,-3.90
2013,12,06,01,05,-3.90
2013,12,06,01,06,-3.90
2013,12,06,01,07,-4.00
2013,12,06,01,08,-4.00
2013,12,06,01,09,-4.00
2013,12,06,01,10,-4.10
2013,12,06,01,11,-4.10
2013,12,06,01,12,-4.10
2013,12,06,01,13,-4.10
2013,12,06,01,14,-4.10
2013,12,06,01,15,-4.20
2013,12,06,01,16,-4.20
2013,12,06,01,17,-4.20
2013,12,06,01,18,-4.20
2013,12,06,01,19,-4.20
2013,12,06,01,20,-4.20
2013,12,06,01,21,-4.30
2013,12,06,01,22,-4.30
2013,12,06,01,23,-4.30
2013,12,06,01,24,-4.30
2013,12,06,01,25,-4.30
2013,12,06,01,26,-4.30
2013,12,06,01,27,-4.30
2013,12,06,01,28,-4.20
2013,12,06,01,29,-4.20
2013,12,06,01,30,-4.20
2013,12,06,01,31,-4.20
2013,12,06,01,32,-4.20
2013,12,06,01,33,-4.20
2013,12,06,01,34,-4.20
2013,12,06,01,35,-4.20
2013,12,06,01,36,-4.20
2013,12,06,01,37,-4.20
2013,12,06,01,38,-4.20
2013,12,06,01,39,-4.20
2013,12,06,01,40,-4.20
2013,12,06,01,41,-4.20
2013,12,06,01,42,-4.10
2013,12,06,01,43,-4.20
2013,12,06,01,44,-4.10
2013,12,06,01,45,-4.10
2013,12,06,01,46,-4.10
2013,12,06,01,47,-4.10
2013,12,06,01,48,-4.10
2013,12,06,01,49,-4.10
2013,12,06,01,50,-4.10
2013,12,06,01,51,-4.10
2013,12,06,01,52,-4.10
2013,12,06,01,53,-4.10
2013,12,06,01,54,-4.10
2013,12,06,01,55,-4.10
2013,12,06,01,56,-4.10
2013,12,06,01,57,-4.10
2013,12,06,01,58,-4.10
2013,12,06,01,59,-4.10
2013,12,06,02,00,-4.10
2013,12,06,02,01,-4.10
2013,12,06,02,02,-4.20
2013,12,06,02,03,-4.20
2013,12,06,02,04,-4.20
2013,12,06,02,05,-4.30
2013,12,06,02,06,-4.30
2013,12,06,02,07,-4.40
2013,12,06,02,08,-4.40
2013,12,06,02,09,-4.50
2013,12,06,02,10,-4.50
2013,12,06,02,11,-4.50
2013,12,06,02,12,-4.60
2013,12,06,02,13,-4.60
2013,12,06,02,14,-4.60
2013,12,06,02,15,-4.60
2013,12,06,02,16,-4.60
2013,12,06,02,17,-4.60
2013,12,06,02,18,-4.60
2013,12,06,02,19,-4.70
2013,12,06,02,20,-4.70
2013,12,06,02,21,-4.70
2013,12,06,02,22,-4.80
2013,12,06,02,23,-4.80
2013,12,06,02,24,-4.80
2013,12,06,02,25,-4.80
2013,12,06,02,26,-4.80
2013,12,06,02,27,-4.70
2013,12,06,02,28,-4.70
2013,12,06,02,29,-4.70
2013,12,06,02,30,-4.70
2013,12,06,02,31,-4.70
2013,12,06,02,32,-4.60
2013,12,06,02,33,-4.60
2013,12,06,02,34,-4.70
2013,12,06,02,35,-4.70
2013,12,06,02,36,-4.70
2013,12,06,02,37,-4.70
2013,12,06,02,38,-4.70
2013,12,06,02,39,-4.70
2013,12,06,02,40,-4.70
2013,12,06,02,41,-4.70
2013,12,06,02,42,-4.80
2013,12,06,02,43,-4.80
2013,12,06,02,44,-4.80
2013,12,06,02,45,-4.80
2013,12,06,02,46,-4.80
2013,12,06,02,47,-4.90
2013,12,06,02,48,-4.80
2013,12,06,02,49,-4.80
2013,12,06,02,50,-4.80
2013,12,06,02,51,-4.70
2013,12,06,02,52,-4.70
2013,12,06,02,53,-4.60
2013,12,06,02,54,-4.50
2013,12,06,02,55,-4.40
2013,12,06,02,56,-4.30
2013,12,06,02,57,-4.20
2013,12,06,02,58,-4.10
2013,12,06,02,59,-4.10
2013,12,06,03,00,-4.00
2013,12,06,03,01,-4.00
2013,12,06,03,02,-3.90
2013,12,06,03,03,-3.90
2013,12,06,03,04,-3.80
2013,12,06,03,05,-3.70
2013,12,06,03,06,-3.70
2013,12,06,03,07,-3.70
2013,12,06,03,08,-3.70
2013,12,06,03,09,-3.70
2013,12,06,03,10,-3.80
2013,12,06,03,11,-3.90
2013,12,06,03,12,-3.90
2013,12,06,03,13,-4.00
2013,12,06,03,14,-4.00
2013,12,06,03,15,-4.10
2013,12,06,03,16,-4.10
2013,12,06,03,17,-4.10
2013,12,06,03,18,-4.20
2013,12,06,03,19,-4.20
2013,12,06,03,20,-4.20
2013,12,06,03,21,-4.20
2013,12,06,03,22,-4.30
2013,12,06,03,23,-4.30
2013,12,06,03,24,-4.30
2013,12,06,03,25,-4.30
2013,12,06,03,26,-4.30
2013,12,06,03,27,-4.30
2013,12,06,03,28,-4.30
2013,12,06,03,29,-4.30
2013,12,06,03,30,-4.30
2013,12,06,03,31,-4.30
2013,12,06,03,32,-4.20
2013,12,06,03,33,-4.20
2013,12,06,03,34,-4.20
2013,12,06,03,35,-4.10
2013,12,06,03,36,-4.10
2013,12,06,03,37,-4.00
2013,12,06,03,38,-3.90
2013,12,06,03,39,-3.80
2013,12,06,03,40,-3.70
2013,12,06,03,41,-3.50
2013,12,06,03,42,-3.30
2013,12,06,03,43,-3.10
2013,12,06,03,44,-2.90
2013,12,06,03,45,-2.70
2013,12,06,03,46,-2.50
2013,12,06,03,47,-2.40
2013,12,06,03,48,-2.30
2013,12,06,03,49,-2.30
2013,12,06,03,50,-2.30
2013,12,06,03,51,-2.30
2013,12,06,03,52,-2.30
2013,12,06,03,53,-2.30
2013,12,06,03,54,-2.30
2013,12,06,03,55,-2.30
2013,12,06,03,56,-2.30
2013,12,06,03,57,-2.30
2013,12,06,03,58,-2.30
2013,12,06,03,59,-2.30
2013,12,06,04,00,-2.40
2013,12,06,04,01,-2.40
2013,12,06,04,02,-2.40
2013,12,06,04,03,-2.50
2013,12,06,04,04,-2.60
2013,12,06,04,05,-2.60
2013,12,06,04,06,-2.60
2013,12,06,04,07,-2.60
2013,12,06,04,08,-2.60
2013,12,06,04,09,-2.60
2013,12,06,04,10,-2.60
2013,12,06,04,11,-2.60
2013,12,06,04,12,-2.60
2013,12,06,04,13,-2.50
2013,12,06,04,14,-2.40
2013,12,06,04,15,-2.40
2013,12,06,04,16,-2.40
2013,12,06,04,17,-2.40
2013,12,06,04,18,-2.30
2013,12,06,04,19,-2.20
2013,12,06,04,20,-2.10
2013,12,06,04,21,-2.10
2013,12,06,04,22,-2.00
2013,12,06,04,23,-1.90
2013,12,06,04,24,-1.90
2013,12,06,04,25,-1.90
2013,12,06,04,26,-1.80
2013,12,06,04,27,-1.80
2013,12,06,04,28,-1.90
2013,12,06,04,29,-1.90
2013,12,06,04,30,-2.00
2013,12,06,04,31,-2.00
2013,12,06,04,32,-2.00
2013,12,06,04,33,-2.10
2013,12,06,04,34,-2.10
2013,12,06,04,35,-2.10
2013,12,06,04,36,-2.10
2013,12,06,04,37,-2.00
2013,12,06,04,38,-1.90
2013,12,06,04,39,-1.90
2013,12,06,04,40,-1.90
2013,12,06,04,41,-1.90
2013,12,06,04,42,-1.90
2013,12,06,04,43,-1.90
2013,12,06,04,44,-1.90
2013,12,06,04,45,-1.90
2013,12,06,04,46,-1.90
2013,12,06,04,47,-2.00
2013,12,06,04,48,-2.00
2013,12,06,04,49,-2.10
2013,12,06,04,50,-2.10
2013,12,06,04,51,-2.10
2013,12,06,04,52,-2.10
2013,12,06,04,53,-2.10
2013,12,06,04,54,-2.10
2013,12,06,04,55,-2.00
2013,12,06,04,56,-2.00
2013,12,06,04,57,-1.90
2013,12,06,04,58,-1.90
2013,12,06,04,59,-1.90
2013,12,06,05,00,-1.90
2013,12,06,05,01,-1.80
2013,12,06,05,02,-1.80
2013,12,06,05,03,-1.80
2013,12,06,05,04,-1.80
2013,12,06,05,05,-1.90
2013,12,06,05,06,-2.00
2013,12,06,05,07,-2.10
2013,12,06,05,08,-2.20
2013,12,06,05,09,-2.30
2013,12,06,05,10,-2.50
2013,12,06,05,11,-2.60
2013,12,06,05,12,-2.70
2013,12,06,05,13,-2.80
2013,12,06,05,14,-2.90
2013,12,06,05,15,-3.00
2013,12,06,05,16,-3.10
2013,12,06,05,17,-3.10
2013,12,06,05,18,-3.20
2013,12,06,05,19,-3.20
2013,12,06,05,20,-3.20
2013,12,06,05,21,-3.20
2013,12,06,05,22,-3.30
2013,12,06,05,23,-3.30
2013,12,06,05,24,-3.40
2013,12,06,05,25,-3.40
2013,12,06,05,26,-3.50
2013,12,06,05,27,-3.60
2013,12,06,05,28,-3.80
2013,12,06,05,29,-3.80
2013,12,06,05,30,-3.90
2013,12,06,05,31,-4.00
2013,12,06,05,32,-4.00
2013,12,06,05,33,-4.10
2013,12,06,05,34,-4.10
2013,12,06,05,35,-4.20
2013,12,06,05,36,-4.30
2013,12,06,05,37,-4.40
2013,12,06,05,38,-4.50
2013,12,06,05,39,-4.60
2013,12,06,05,40,-4.70
2013,12,06,05,41,-4.80
2013,12,06,05,42,-4.90
2013,12,06,05,43,-5.00
2013,12,06,05,44,-5.10
2013,12,06,05,45,-5.10
2013,12,06,05,46,-5.10
2013,12,06,05,47,-5.20
2013,12,06,05,48,-5.20
2013,12,06,05,49,-5.30
2013,12,06,05,50,-5.30
2013,12,06,05,51,-5.30
2013,12,06,05,52,-5.30
2013,12,06,05,53,-5.30
2013,12,06,05,54,-5.30
2013,12,06,05,55,-5.30
2013,12,06,05,56,-5.30
2013,12,06,05,57,-5.30
2013,12,06,05,58,-5.30
2013,12,06,12,11,-0.80
2013,12,06,12,12,-0.80
2013,12,06,12,13,-0.80
2013,12,06,12,14,-0.80
2013,12,06,12,15,-0.80
2013,12,06,12,16,-0.80
2013,12,06,12,17,-0.70
2013,12,06,12,18,-0.70
2013,12,06,12,19,-0.70
2013,12,06,12,20,-0.70
2013,12,06,12,21,-0.70
2013,12,06,12,22,-0.80
2013,12,06,12,23,-0.80
2013,12,06,12,24,-0.80
2013,12,06,12,25,-0.70
2013,12,06,12,26,-0.70
2013,12,06,12,27,-0.70
2013,12,06,12,28,-0.70
2013,12,06,12,29,-0.70
2013,12,06,12,30,-0.70
2013,12,06,12,31,-0.70
2013,12,06,12,32,-0.70
2013,12,06,12,33,-0.70
2013,12,06,12,34,-0.70
2013,12,06,12,35,-0.70
2013,12,06,12,36,-0.70
2013,12,06,12,37,-0.70
2013,12,06,12,38,-0.70
2013,12,06,12,39,-0.70
2013,12,06,12,40,-0.60
2013,12,06,12,41,-0.60
2013,12,06,12,42,-0.60
2013,12,06,12,43,-0.60
2013,12,06,12,44,-0.60
2013,12,06,12,45,-0.60
2013,12,06,12,46,-0.60
2013,12,06,12,47,-0.60
2013,12,06,12,48,-0.60
2013,12,06,12,49,-0.60
2013,12,06,12,50,-0.60
2013,12,06,12,51,-0.60
2013,12,06,12,52,-0.60
2013,12,06,12,53,-0.60
2013,12,06,12,54,-0.60
2013,12,06,12,55,-0.60
2013,12,06,12,56,-0.60
2013,12,06,12,57,-0.60
2013,12,06,12,58,-0.60
2013,12,06,12,59,-0.60
2013,12,06,13,00,-0.50
2013,12,06,13,01,-0.50
2013,12,06,13,02,-0.40
2013,12,06,13,03,-0.50
2013,12,06,13,04,-0.50
2013,12,06,13,05,-0.50
2013,12,06,13,06,-0.50
2013,12,06,13,07,-0.40
2013,12,06,13,08,-0.40
2013,12,06,13,09,-0.40
2013,12,06,13,10,-0.40
2013,12,06,13,11,-0.40
2013,12,06,13,12,-0.40
2013,12,06,13,13,-0.40
2013,12,06,13,14,-0.30
2013,12,06,13,15,-0.30
2013,12,06,13,16,-0.30
2013,12,06,13,17,-0.30
2013,12,06,13,18,-0.30
2013,12,06,13,19,-0.30
2013,12,06,13,20,-0.40
2013,12,06,13,21,-0.40
2013,12,06,13,22,-0.40
2013,12,06,13,23,-0.40
2013,12,06,13,24,-0.40
2013,12,06,13,25,-0.40
2013,12,06,13,26,-0.50
2013,12,06,13,27,-0.40
2013,12,06,13,28,-0.40
2013,12,06,13,29,-0.40
2013,12,06,13,30,-0.40
2013,12,06,13,31,-0.40
2013,12,06,13,32,-0.40
2013,12,06,13,33,-0.40
2013,12,06,13,34,-0.40
2013,12,06,13,35,-0.40
2013,12,06,13,36,-0.40
2013,12,06,13,37,-0.40
2013,12,06,13,38,-0.40
2013,12,06,13,39,-0.40
2013,12,06,13,40,-0.50
2013,12,06,13,41,-0.50
2013,12,06,13,42,-0.50
2013,12,06,13,43,-0.50
2013,12,06,13,44,-0.50
2013,12,06,13,45,-0.50
2013,12,06,13,46,-0.40
2013,12,06,13,47,-0.40
2013,12,06,13,48,-0.40
2013,12,06,13,49,-0.40
2013,12,06,13,50,-0.40
2013,12,06,13,51,-0.30
2013,12,06,13,52,-0.30
2013,12,06,13,53,-0.30
2013,12,06,13,54,-0.30
2013,12,06,13,55,-0.30
2013,12,06,13,56,-0.30
2013,12,06,13,57,-0.30
2013,12,06,13,58,-0.30
2013,12,06,13,59,-0.30
2013,12,06,14,00,-0.30
2013,12,06,14,01,-0.40
2013,12,06,14,02,-0.40
2013,12,06,14,03,-0.40
2013,12,06,14,04,-0.40
2013,12,06,14,05,-0.40
2013,12,06,14,06,-0.40
2013,12,06,14,07,-0.40
2013,12,06,14,08,-0.40
2013,12,06,14,09,-0.40
2013,12,06,14,10,-0.40
2013,12,06,14,11,-0.30
2013,12,06,14,12,-0.30
2013,12,06,14,13,-0.30
2013,12,06,14,14,-0.30
2013,12,06,14,15,-0.30
2013,12,06,14,16,-0.30
2013,12,06,14,17,-0.30
2013,12,06,14,18,-0.40
2013,12,06,14,19,-0.40
2013,12,06,14,20,-0.40
2013,12,06,14,21,-0.30
2013,12,06,14,22,-0.30
2013,12,06,14,23,-0.30
2013,12,06,14,24,-0.30
2013,12,06,14,25,-0.30
2013,12,06,14,26,-0.30
2013,12,06,14,27,-0.30
2013,12,06,14,28,-0.30
2013,12,06,14,29,-0.30
2013,12,06,14,30,-0.30
2013,12,06,14,31,-0.30
2013,12,06,14,32,-0.30
2013,12,06,14,33,-0.30
2013,12,06,14,34,-0.30
2013,12,06,14,35,-0.30
2013,12,06,14,36,-0.30
2013,12,06,14,37,-0.30
2013,12,06,14,38,-0.20
2013,12,06,14,39,-0.20
2013,12,06,14,40,-0.30
2013,12,06,14,41,-0.30
2013,12,06,14,42,-0.30
2013,12,06,14,43,-0.30
2013,12,06,14,44,-0.30
2013,12,06,14,45,-0.30
2013,12,06,14,46,-0.30
2013,12,06,14,47,-0.30
2013,12,06,14,48,-0.30
2013,12,06,14,49,-0.30
2013,12,06,14,50,-0.40
2013,12,06,14,51,-0.40
2013,12,06,14,52,-0.40
2013,12,06,14,53,-0.40
2013,12,06,14,54,-0.40
2013,12,06,14,55,-0.40
2013,12,06,14,56,-0.40
2013,12,06,14,57,-0.40
2013,12,06,14,58,-0.40
2013,12,06,14,59,-0.40
2013,12,06,15,00,-0.50
2013,12,06,15,01,-0.50
2013,12,06,15,02,-0.50
2013,12,06,15,03,-0.50
2013,12,06,15,04,-0.50
2013,12,06,15,05,-0.50
2013,12,06,15,06,-0.50
2013,12,06,15,07,-0.50
2013,12,06,15,08,-0.50
2013,12,06,15,09,-0.50
2013,12,06,15,10,-0.50
2013,12,06,15,11,-0.50
2013,12,06,15,12,-0.60
2013,12,06,15,13,-0.60
2013,12,06,15,14,-0.60
2013,12,06,15,15,-0.60
2013,12,06,15,16,-0.60
2013,12,06,15,17,-0.60
2013,12,06,15,18,-0.60
2013,12,06,15,19,-0.60
2013,12,06,15,20,-0.60
2013,12,06,15,21,-0.60
2013,12,06,15,22,-0.60
2013,12,06,15,23,-0.60
2013,12,06,15,24,-0.70
2013,12,06,15,25,-0.70
2013,12,06,15,26,-0.70
2013,12,06,15,27,-0.70
2013,12,06,15,28,-0.70
2013,12,06,15,29,-0.70
2013,12,06,15,30,-0.70
2013,12,06,15,31,-0.70
2013,12,06,15,32,-0.70
2013,12,06,15,33,-0.70
2013,12,06,15,34,-0.70
2013,12,06,15,35,-0.70
2013,12,06,15,36,-0.70
2013,12,06,15,37,-0.80
2013,12,06,15,38,-0.80
2013,12,06,15,39,-0.80
2013,12,06,15,40,-0.80
2013,12,06,15,41,-0.80
2013,12,06,15,42,-0.80
2013,12,06,15,43,-0.70
2013,12,06,15,44,-0.80
2013,12,06,15,45,-0.80
2013,12,06,15,46,-0.80
2013,12,06,15,47,-0.80
2013,12,06,15,48,-0.80
2013,12,06,15,49,-0.90
2013,12,06,15,50,-0.80
2013,12,06,15,51,-0.80
2013,12,06,15,52,-0.90
2013,12,06,15,53,-0.90
2013,12,06,15,54,-0.90
2013,12,06,15,55,-0.90
2013,12,06,15,56,-0.90
2013,12,06,15,57,-0.90
2013,12,06,15,58,-0.90
2013,12,06,15,59,-0.90
2013,12,06,16,00,-0.90
2013,12,06,16,01,-0.90
2013,12,06,16,02,-1.00
2013,12,06,16,03,-1.00
2013,12,06,16,04,-1.00
2013,12,06,16,05,-1.10
2013,12,06,16,06,-1.10
2013,12,06,16,07,-1.10
2013,12,06,16,08,-1.10
2013,12,06,16,09,-1.10
2013,12,06,16,10,-1.10
2013,12,06,16,11,-1.10
2013,12,06,16,12,-1.10
2013,12,06,16,13,-1.10
2013,12,06,16,14,-1.20
2013,12,06,16,15,-1.20
2013,12,06,16,16,-1.20
2013,12,06,16,17,-1.20
2013,12,06,16,18,-1.20
2013,12,06,16,19,-1.20
2013,12,06,16,20,-1.30
2013,12,06,16,21,-1.30
2013,12,06,16,22,-1.30
2013,12,06,16,23,-1.30
2013,12,06,16,24,-1.30
2013,12,06,16,25,-1.30
2013,12,06,16,26,-1.30
2013,12,06,16,27,-1.30
2013,12,06,16,28,-1.30
2013,12,06,16,29,-1.30
2013,12,06,16,30,-1.40
2013,12,06,16,31,-1.40
2013,12,06,16,32,-1.40
2013,12,06,16,33,-1.40
2013,12,06,16,34,-1.40
2013,12,06,16,35,-1.40
2013,12,06,16,36,-1.40
2013,12,06,16,37,-1.40
2013,12,06,16,38,-1.40
2013,12,06,16,39,-1.40
2013,12,06,16,40,-1.40
2013,12,06,16,41,-1.40
2013,12,06,16,42,-1.40
2013,12,06,16,43,-1.40
2013,12,06,16,44,-1.40
2013,12,06,16,45,-1.40
2013,12,06,16,46,-1.40
2013,12,06,16,47,-1.40
2013,12,06,16,48,-1.40
2013,12,06,16,49,-1.40
2013,12,06,16,50,-1.40
2013,12,06,16,51,-1.40
2013,12,06,16,52,-1.40
2013,12,06,16,53,-1.40
2013,12,06,16,54,-1.50
2013,12,06,16,55,-1.40
2013,12,06,16,56,-1.40
2013,12,06,16,57,-1.50
2013,12,06,16,58,-1.50
2013,12,06,16,59,-1.50
2013,12,06,17,00,-1.50
2013,12,06,17,01,-1.50
2013,12,06,17,02,-1.50
2013,12,06,17,03,-1.50
2013,12,06,17,04,-1.50
2013,12,06,17,05,-1.50
2013,12,06,17,06,-1.50
2013,12,06,17,07,-1.50
2013,12,06,17,08,-1.50
2013,12,06,17,09,-1.50
2013,12,06,17,10,-1.60
2013,12,06,17,11,-1.60
2013,12,06,17,12,-1.60
2013,12,06,17,13,-1.60
2013,12,06,17,14,-1.60
2013,12,06,17,15,-1.60
2013,12,06,17,16,-1.60
2013,12,06,17,17,-1.60
2013,12,06,17,18,-1.60
2013,12,06,17,19,-1.60
2013,12,06,17,20,-1.60
2013,12,06,17,21,-1.70
2013,12,06,17,22,-1.70
2013,12,06,17,23,-1.70
2013,12,06,17,24,-1.70
2013,12,06,17,25,-1.70
2013,12,06,17,26,-1.70
2013,12,06,17,27,-1.70
2013,12,06,17,28,-1.70
2013,12,06,17,29,-1.70
2013,12,06,17,30,-1.70
2013,12,06,17,31,-1.70
2013,12,06,17,32,-1.80
2013,12,06,17,33,-1.80
2013,12,06,17,34,-1.80
2013,12,06,17,35,-1.80
2013,12,06,17,36,-1.80
2013,12,06,17,37,-1.80
2013,12,06,17,38,-1.80
2013,12,06,17,39,-1.80
2013,12,06,17,40,-1.80
2013,12,06,17,41,-1.80
2013,12,06,17,42,-1.80
2013,12,06,17,43,-1.80
2013,12,06,17,44,-1.80
2013,12,06,17,45,-1.80
2013,12,06,17,46,-1.80
2013,12,06,17,47,-1.80
2013,12,06,17,48,-1.80
2013,12,06,17,49,-1.80
2013,12,06,17,50,-1.80
2013,12,06,17,51,-1.80
2013,12,06,17,52,-1.80
2013,12,06,17,53,-1.80
2013,12,06,17,54,-1.80
2013,12,06,17,55,-1.80
2013,12,06,17,56,-1.90
2013,12,06,17,57,-1.90
2013,12,06,17,58,-1.90
2013,12,06,17,59,-1.90
2013,12,06,18,00,-1.90
2013,12,06,18,01,-2.00
2013,12,06,18,02,-2.00
2013,12,06,18,03,-2.00
2013,12,06,18,04,-2.00
2013,12,06,18,05,-2.00
2013,12,06,18,06,-2.00
2013,12,06,18,07,-2.00
2013,12,06,18,08,-2.00
2013,12,06,18,09,-2.00
2013,12,06,18,10,-2.10
2013,12,06,18,11,-2.10
2013,12,06,18,12,-2.10
2013,12,06,18,13,-2.00
2013,12,06,18,14,-2.00
2013,12,06,18,15,-2.00
2013,12,06,18,16,-2.00
2013,12,06,18,17,-2.00
2013,12,06,18,18,-2.00
2013,12,06,18,19,-2.00
2013,12,06,18,20,-2.00
2013,12,06,18,21,-2.00
2013,12,06,18,22,-2.00
2013,12,06,18,23,-2.00
2013,12,06,18,24,-2.00
2013,12,06,18,25,-2.00
2013,12,06,18,26,-2.00
2013,12,06,18,27,-2.00
2013,12,06,18,28,-2.00
2013,12,06,18,29,-2.10
2013,12,06,18,30,-2.10
2013,12,06,18,31,-2.10
2013,12,06,18,32,-2.10
2013,12,06,18,33,-2.10
2013,12,06,18,34,-2.00
2013,12,06,18,35,-2.00
2013,12,06,18,36,-2.00
2013,12,06,18,37,-2.00
2013,12,06,18,38,-2.00
2013,12,06,18,39,-2.00
2013,12,06,18,40,-2.00
2013,12,06,18,41,-2.10
2013,12,06,18,42,-2.10
2013,12,06,18,43,-2.10
2013,12,06,18,44,-2.20
2013,12,06,18,45,-2.20
2013,12,06,18,46,-2.20
2013,12,06,18,47,-2.20
2013,12,06,18,48,-2.20
2013,12,06,18,49,-2.20
2013,12,06,18,50,-2.20
2013,12,06,18,51,-2.20
2013,12,06,18,52,-2.20
2013,12,06,18,53,-2.20
2013,12,06,18,54,-2.20
2013,12,06,18,55,-2.20
2013,12,06,18,56,-2.20
2013,12,06,18,57,-2.20
2013,12,06,18,58,-2.20
2013,12,06,18,59,-2.20
2013,12,06,19,00,-2.30
2013,12,06,19,01,-2.30
2013,12,06,19,02,-2.30
2013,12,06,19,03,-2.30
2013,12,06,19,04,-2.30
2013,12,06,19,05,-2.30
2013,12,06,19,06,-2.30
2013,12,06,19,07,-2.30
2013,12,06,19,08,-2.30
2013,12,06,19,09,-2.30
2013,12,06,19,10,-2.20
2013,12,06,19,11,-2.30
2013,12,06,19,12,-2.30
2013,12,06,19,13,-2.30
2013,12,06,19,14,-2.30
2013,12,06,19,15,-2.30
2013,12,06,19,16,-2.30
2013,12,06,19,17,-2.30
2013,12,06,19,18,-2.30
2013,12,06,19,19,-2.30
2013,12,06,19,20,-2.40
2013,12,06,19,21,-2.40
2013,12,06,19,22,-2.40
2013,12,06,19,23,-2.40
2013,12,06,19,24,-2.40
2013,12,06,19,25,-2.40
2013,12,06,19,26,-2.40
2013,12,06,19,27,-2.40
2013,12,06,19,28,-2.40
2013,12,06,19,29,-2.40
2013,12,06,19,30,-2.40
2013,12,06,19,31,-2.40
2013,12,06,19,32,-2.40
2013,12,06,19,33,-2.40
2013,12,06,19,34,-2.40
2013,12,06,19,35,-2.40
2013,12,06,19,36,-2.50
2013,12,06,19,37,-2.40
2013,12,06,19,38,-2.40
2013,12,06,19,39,-2.40
2013,12,06,19,40,-2.40
2013,12,06,19,41,-2.40
2013,12,06,19,42,-2.40
2013,12,06,19,43,-2.40
2013,12,06,19,44,-2.40
2013,12,06,19,45,-2.40
2013,12,06,19,46,-2.40
2013,12,06,19,47,-2.40
2013,12,06,19,48,-2.40
2013,12,06,19,49,-2.40
2013,12,06,19,50,-2.40
2013,12,06,19,51,-2.40
2013,12,06,19,52,-2.40
2013,12,06,19,53,-2.40
2013,12,06,19,54,-2.30
2013,12,06,19,55,-2.30
2013,12,06,19,56,-2.30
2013,12,06,19,57,-2.30
2013,12,06,19,58,-2.30
2013,12,06,19,59,-2.30
2013,12,06,20,00,-2.30
2013,12,06,20,01,-2.30
2013,12,06,20,02,-2.30
2013,12,06,20,03,-2.40
2013,12,06,20,04,-2.40
2013,12,06,20,05,-2.40
2013,12,06,20,06,-2.40
2013,12,06,20,07,-2.40
2013,12,06,20,08,-2.40
2013,12,06,20,09,-2.40
2013,12,06,20,10,-2.40
2013,12,06,20,11,-2.40
2013,12,06,20,12,-2.40
2013,12,06,20,13,-2.30
2013,12,06,20,14,-2.30
2013,12,06,20,15,-2.30
2013,12,06,20,16,-2.30
2013,12,06,20,17,-2.40
2013,12,06,20,18,-2.40
2013,12,06,20,19,-2.40
2013,12,06,20,20,-2.40
2013,12,06,20,21,-2.50
2013,12,06,20,22,-2.50
2013,12,06,20,23,-2.60
2013,12,06,20,24,-2.60
2013,12,06,20,25,-2.60
2013,12,06,20,26,-2.60
2013,12,06,20,27,-2.60
2013,12,06,20,28,-2.60
2013,12,06,20,29,-2.50
2013,12,06,20,30,-2.40
2013,12,06,20,31,-2.40
2013,12,06,20,32,-2.40
2013,12,06,20,33,-2.40
2013,12,06,20,34,-2.40
2013,12,06,20,35,-2.40
2013,12,06,20,36,-2.40
2013,12,06,20,37,-2.40
2013,12,06,20,38,-2.40
2013,12,06,20,39,-2.40
2013,12,06,20,40,-2.50
2013,12,06,20,41,-2.50
2013,12,06,20,42,-2.50
2013,12,06,20,43,-2.50
2013,12,06,20,44,-2.50
2013,12,06,20,45,-2.60
2013,12,06,20,46,-2.60
2013,12,06,20,47,-2.60
2013,12,06,20,48,-2.50
2013,12,06,20,49,-2.50
2013,12,06,20,50,-2.50
2013,12,06,20,51,-2.40
2013,12,06,20,52,-2.40
2013,12,06,20,53,-2.40
2013,12,06,20,54,-2.40
2013,12,06,20,55,-2.40
2013,12,06,20,56,-2.50
2013,12,06,20,57,-2.50
2013,12,06,20,58,-2.50
2013,12,06,20,59,-2.50
2013,12,06,21,00,-2.50
2013,12,06,21,01,-2.40
2013,12,06,21,02,-2.40
2013,12,06,21,03,-2.40
2013,12,06,21,04,-2.40
2013,12,06,21,05,-2.40
2013,12,06,21,06,-2.40
2013,12,06,21,07,-2.50
2013,12,06,21,08,-2.50
2013,12,06,21,09,-2.60
2013,12,06,21,10,-2.60
2013,12,06,21,11,-2.60
2013,12,06,21,12,-2.60
2013,12,06,21,13,-2.60
2013,12,06,21,14,-2.60
2013,12,06,21,15,-2.60
2013,12,06,21,16,-2.60
2013,12,06,21,17,-2.60
2013,12,06,21,18,-2.60
2013,12,06,21,19,-2.70
2013,12,06,21,20,-2.70
2013,12,06,21,21,-2.70
2013,12,06,21,22,-2.70
2013,12,06,21,23,-2.70
2013,12,06,21,24,-2.70
2013,12,06,21,25,-2.60
2013,12,06,21,26,-2.60
2013,12,06,21,27,-2.60
2013,12,06,21,28,-2.60
2013,12,06,21,29,-2.60
2013,12,06,21,30,-2.60
2013,12,06,21,31,-2.60
2013,12,06,21,32,-2.60
2013,12,06,21,33,-2.60
2013,12,06,21,34,-2.60
2013,12,06,21,35,-2.60
2013,12,06,21,36,-2.60
2013,12,06,21,37,-2.60
2013,12,06,21,38,-2.60
2013,12,06,21,39,-2.60
2013,12,06,21,40,-2.60
2013,12,06,21,41,-2.60
2013,12,06,21,42,-2.60
2013,12,06,21,43,-2.60
2013,12,06,21,44,-2.60
2013,12,06,21,45,-2.60
2013,12,06,21,46,-2.60
2013,12,06,21,47,-2.60
2013,12,06,21,48,-2.60
2013,12,06,21,49,-2.60
2013,12,06,21,50,-2.70
2013,12,06,21,51,-2.70
2013,12,06,21,52,-2.70
2013,12,06,21,53,-2.70
2013,12,06,21,54,-2.70
2013,12,06,21,55,-2.70
2013,12,06,21,56,-2.70
2013,12,06,21,57,-2.70
2013,12,06,21,58,-2.70
2013,12,06,21,59,-2.70
2013,12,06,22,00,-2.70
2013,12,06,22,01,-2.70
2013,12,06,22,02,-2.70
2013,12,06,22,03,-2.70
2013,12,06,22,04,-2.70
2013,12,06,22,05,-2.70
2013,12,06,22,06,-2.70
2013,12,06,22,07,-2.70
2013,12,06,22,08,-2.70
2013,12,06,22,09,-2.70
2013,12,06,22,10,-2.70
2013,12,06,22,11,-2.70
2013,12,06,22,12,-2.70
2013,12,06,22,13,-2.60
2013,12,06,22,14,-2.60
2013,12,06,22,15,-2.60
2013,12,06,22,16,-2.60
2013,12,06,22,17,-2.50
2013,12,06,22,18,-2.60
2013,12,06,22,19,-2.60
2013,12,06,22,20,-2.60
2013,12,06,22,21,-2.60
2013,12,06,22,22,-2.60
2013,12,06,22,23,-2.60
2013,12,06,22,24,-2.60
2013,12,06,22,25,-2.60
2013,12,06,22,26,-2.70
2013,12,06,22,27,-2.70
2013,12,06,22,28,-2.70
2013,12,06,22,29,-2.70
2013,12,06,22,30,-2.70
2013,12,06,22,31,-2.70
2013,12,06,22,32,-2.70
2013,12,06,22,33,-2.70
2013,12,06,22,34,-2.70
2013,12,06,22,35,-2.70
2013,12,06,22,36,-2.70
2013,12,06,22,37,-2.70
2013,12,06,22,38,-2.70
2013,12,06,22,39,-2.70
2013,12,06,22,40,-2.70
2013,12,06,22,41,-2.70
2013,12,06,22,42,-2.70
2013,12,06,22,43,-2.70
2013,12,06,22,44,-2.80
2013,12,06,22,45,-2.80
2013,12,06,22,46,-2.80
2013,12,06,22,47,-2.80
2013,12,06,22,48,-2.80
2013,12,06,22,49,-2.80
2013,12,06,22,50,-2.80
2013,12,06,22,51,-2.90
2013,12,06,22,52,-2.90
2013,12,06,22,53,-2.80
2013,12,06,22,54,-2.80
2013,12,06,22,55,-2.80
2013,12,06,22,56,-2.70
2013,12,06,22,57,-2.60
2013,12,06,22,58,-2.60
2013,12,06,22,59,-2.60
2013,12,06,23,00,-2.60
2013,12,06,23,01,-2.50
2013,12,06,23,02,-2.40
2013,12,06,23,03,-2.40
2013,12,06,23,04,-2.40
2013,12,06,23,05,-2.40
2013,12,06,23,06,-2.40
2013,12,06,23,07,-2.30
2013,12,06,23,08,-2.30
2013,12,06,23,09,-2.30
2013,12,06,23,10,-2.20
2013,12,06,23,11,-2.20
2013,12,06,23,12,-2.20
2013,12,06,23,13,-2.20
2013,12,06,23,14,-2.20
2013,12,06,23,15,-2.20
2013,12,06,23,16,-2.20
2013,12,06,23,17,-2.20
2013,12,06,23,18,-2.20
2013,12,06,23,19,-2.20
2013,12,06,23,20,-2.20
2013,12,06,23,21,-2.20
2013,12,06,23,22,-2.20
2013,12,06,23,23,-2.20
2013,12,06,23,24,-2.20
2013,12,06,23,25,-2.20
2013,12,06,23,26,-2.20
2013,12,06,23,27,-2.20
2013,12,06,23,28,-2.30
2013,12,06,23,29,-2.30
2013,12,06,23,30,-2.30
2013,12,06,23,31,-2.30